Other Surface Observations
Issued by NWS Charleston, SC

Home | Current Version | Previous Version | Text Only | Print | Product List | Glossary On
Versions: 1 2 3 4 5 6 7 8 9 10 11 12 13 14 15 16 17 18 19 20 21 22 23 24 25 26 27 28 29 30 31 32 33 34 35 36 37 38 39 40 41 42 43 44 45 46 47 48 49 50
000
SXUS52 KCHS 280628
OSOCHS

MARINE OBSERVATIONS
NATIONAL WEATHER SERVICE CHARLESTON SC
200 AM EDT SUN AUG 28 2016

...DOWNTOWN CHARLESTON AND HARBOR...

CITY           SKY/WX    TMP DP  RH WIND       PRES   REMARKS
WATERFRONT PRK   N/A     81  75  82 NE6       30.05F

...LAKE MOULTRIE...

CITY           SKY/WX    TMP DP  RH WIND       PRES   REMARKS
PINOPOLIS        N/A     79  75  89 VRB2      30.02F

...LAKE AND SUPPLEMENTAL COASTAL OBSERVATIONS...

STATION/POSITION TIME  TEMP    WIND        PRES    WAVE   SWELL
                       AIR SEA DIR/SP/G            HT/PER HT/PER/DIR
                 (UTC) (F)     (DEG/KT/KT) (MB)    (FT/S) (FT/S/D)
FORT PULASKI     0600   83 85  100/ 10/ 13 1017.9F
SAPELO ISLAND    0600   81      60/  5     1017.0F
WINYAH BAY       0545   79      40/  3     1018.0F
LAKE MURRAY      0600   79      40/  1/  4 1019.3S
ACE BASIN NERRS  0500   77        CALM     1019.0S


...C-MAN AND BUOY OBSERVATIONS...

STATION/POSITION TIME  TEMP    WIND        PRES    WAVE   SWELL
                       AIR SEA DIR/SP/G            HT/PER HT/PER/DIR
                 (UTC) (F)     (DEG/KT/KT) (MB)    (FT/S) (FT/S/D)
BUOY 41004       0550   83 84   60/ 10/ 12 1017.7F   4/ 8   3/120/ 8
BUOY 41008       0550   83 85   80/ 14/ 16 1016.8F   4/ 8   2/110/ 8
FOLLY BEACH CMAN 0600   83      90/ 11/ 12 1018.5F
CAPERS NS BUOY   0608   83 84   90/ 10/ 14 1018.0F
FRIPP NS BUOY    0608   83 86   90/ 12/ 16 1017.2F
5E ST. MARYS GA  0601      85                N/A     4/ 9


STATION/POSITION TIME  TEMP    WIND        PRES    WAVE   SWELL
                       AIR SEA DIR/SP/G            HT/PER HT/PER/DIR
                 (UTC) (F)     (DEG/KT/KT) (MB)    (FT/S) (FT/S/D)
FRYING PAN BUOY  0600   83 84   70/  6/  8 1018.5F
BUOY 41025       0550   77 84  330/ 12/ 16 1019.5F   3/ 9   3/100/ 9
CAPE LOOKOUT NC  0600   82      50/ 11/ 12 1019.1F
BUOY 41002       0550   82 84   60/ 10/ 14 1017.1F   4/ 8   3/140/ 8
BUOY 41010       NOT AVBL
ST AUGUSTINE FL  0600   82 84   60/ 12/ 13 1016.5F

$$




USA.gov is the U.S. government's official web portal to all federal, state and local government web resources and services.